Time,TemperatureF,DewpointF,PressureIn,WindDirection,WindDirectionDegrees,WindSpeedMPH,WindSpeedGustMPH,Humidity,HourlyPrecipIn,Conditions,Clouds,dailyrainin,SoftwareType,DateUTC
2014-12-19 00:03:00,27.1,23.8,30.19,West,267,1.0,1.0,87,0.00,,,0.00,vanprod-2.5,2014-12-19 05:03:00,
2014-12-19 00:08:00,27.1,23.8,30.19,West,280,0.0,0.0,87,0.00,,,0.00,vanprod-2.5,2014-12-19 05:08:00,
2014-12-19 00:13:00,27.1,23.8,30.19,NW,316,1.0,1.0,87,0.00,,,0.00,vanprod-2.5,2014-12-19 05:13:00,
2014-12-19 00:18:00,27.1,23.8,30.19,WSW,258,0.0,0.0,87,0.00,,,0.00,vanprod-2.5,2014-12-19 05:18:00,
2014-12-19 00:23:00,27.2,23.6,30.19,WNW,294,1.0,0.0,86,0.00,,,0.00,vanprod-2.5,2014-12-19 05:23:00,
2014-12-19 00:28:00,27.1,23.5,30.19,WNW,285,0.0,1.0,86,0.00,,,0.00,vanprod-2.5,2014-12-19 05:28:00,
2014-12-19 00:33:00,27.1,23.5,30.19,West,264,0.0,0.0,86,0.00,,,0.00,vanprod-2.5,2014-12-19 05:33:00,
2014-12-19 00:38:00,27.1,23.5,30.19,West,262,0.0,1.0,86,0.00,,,0.00,vanprod-2.5,2014-12-19 05:38:00,
2014-12-19 00:43:00,27.1,23.5,30.19,North,350,0.0,0.0,86,0.00,,,0.00,vanprod-2.5,2014-12-19 05:43:00,
2014-12-19 00:48:00,27.0,23.4,30.19,West,280,0.0,0.0,86,0.00,,,0.00,vanprod-2.5,2014-12-19 05:48:00,
2014-12-19 00:53:00,27.0,23.4,30.19,North,8,0.0,0.0,86,0.00,,,0.00,vanprod-2.5,2014-12-19 05:53:00,
2014-12-19 00:58:00,27.1,23.5,30.19,NE,53,0.0,0.0,86,0.00,,,0.00,vanprod-2.5,2014-12-19 05:58:00,
2014-12-19 01:03:00,27.1,23.5,30.19,NE,53,0.0,0.0,86,0.00,,,0.00,vanprod-2.5,2014-12-19 06:03:00,
2014-12-19 01:08:00,27.0,23.4,30.19,WNW,287,1.0,1.0,86,0.00,,,0.00,vanprod-2.5,2014-12-19 06:08:00,
2014-12-19 01:13:00,26.9,23.0,30.19,NNW,340,0.0,0.0,85,0.00,,,0.00,vanprod-2.5,2014-12-19 06:13:00,
2014-12-19 01:18:00,27.0,23.1,30.19,West,271,0.0,0.0,85,0.00,,,0.00,vanprod-2.5,2014-12-19 06:18:00,
2014-12-19 01:23:00,27.0,22.8,30.19,West,281,0.0,1.0,84,0.00,,,0.00,vanprod-2.5,2014-12-19 06:23:00,
2014-12-19 01:28:00,26.9,22.7,30.19,NE,38,0.0,0.0,84,0.00,,,0.00,vanprod-2.5,2014-12-19 06:28:00,
2014-12-19 01:33:00,27.0,22.8,30.19,WNW,292,0.0,1.0,84,0.00,,,0.00,vanprod-2.5,2014-12-19 06:33:00,
2014-12-19 01:38:00,27.0,22.5,30.19,NNW,340,0.0,0.0,83,0.00,,,0.00,vanprod-2.5,2014-12-19 06:38:00,
2014-12-19 01:43:00,27.0,22.5,30.19,WNW,285,0.0,0.0,83,0.00,,,0.00,vanprod-2.5,2014-12-19 06:43:00,
2014-12-19 01:48:00,27.0,22.5,30.19,WNW,295,0.0,0.0,83,0.00,,,0.00,vanprod-2.5,2014-12-19 06:48:00,
2014-12-19 01:53:00,27.0,22.8,30.19,West,273,0.0,0.0,84,0.00,,,0.00,vanprod-2.5,2014-12-19 06:53:00,
2014-12-19 01:58:00,27.0,22.8,30.19,WNW,287,0.0,0.0,84,0.00,,,0.00,vanprod-2.5,2014-12-19 06:58:00,
2014-12-19 02:03:00,27.0,22.8,30.19,WNW,283,0.0,1.0,84,0.00,,,0.00,vanprod-2.5,2014-12-19 07:03:00,
2014-12-19 02:08:00,27.0,23.1,30.19,West,280,0.0,2.0,85,0.00,,,0.00,vanprod-2.5,2014-12-19 07:08:00,
2014-12-19 02:13:00,27.0,23.1,30.19,West,273,0.0,0.0,85,0.00,,,0.00,vanprod-2.5,2014-12-19 07:13:00,
2014-12-19 02:18:00,27.0,23.1,30.18,NNW,341,0.0,1.0,85,0.00,,,0.00,vanprod-2.5,2014-12-19 07:18:00,
2014-12-19 02:23:00,27.0,23.1,30.19,NNW,340,0.0,1.0,85,0.00,,,0.00,vanprod-2.5,2014-12-19 07:23:00,
2014-12-19 02:28:00,27.0,23.1,30.19,WNW,286,0.0,0.0,85,0.00,,,0.00,vanprod-2.5,2014-12-19 07:28:00,
2014-12-19 02:33:00,27.0,23.1,30.19,NW,319,1.0,2.0,85,0.00,,,0.00,vanprod-2.5,2014-12-19 07:33:00,
2014-12-19 02:38:00,26.9,22.7,30.19,NW,320,0.0,1.0,84,0.00,,,0.00,vanprod-2.5,2014-12-19 07:38:00,
2014-12-19 02:43:00,26.9,23.0,30.20,WNW,290,1.0,1.0,85,0.00,,,0.00,vanprod-2.5,2014-12-19 07:43:00,
2014-12-19 02:48:00,26.9,22.7,30.19,WNW,301,1.0,2.0,84,0.00,,,0.00,vanprod-2.5,2014-12-19 07:48:00,
2014-12-19 02:53:00,26.8,22.6,30.19,WNW,297,0.0,0.0,84,0.00,,,0.00,vanprod-2.5,2014-12-19 07:53:00,
2014-12-19 02:58:00,26.8,22.9,30.19,NNE,30,1.0,3.0,85,0.00,,,0.00,vanprod-2.5,2014-12-19 07:58:00,
2014-12-19 03:03:00,26.8,22.9,30.19,North,352,2.0,5.0,85,0.00,,,0.00,vanprod-2.5,2014-12-19 08:03:00,
2014-12-19 03:08:00,26.8,22.9,30.19,North,8,0.0,1.0,85,0.00,,,0.00,vanprod-2.5,2014-12-19 08:08:00,
2014-12-19 03:13:00,26.8,22.9,30.19,NNE,31,0.0,0.0,85,0.00,,,0.00,vanprod-2.5,2014-12-19 08:13:00,
2014-12-19 03:19:00,26.8,22.9,30.19,West,264,0.0,1.0,85,0.00,,,0.00,vanprod-2.5,2014-12-19 08:19:00,
2014-12-19 03:24:00,26.8,22.9,30.19,WNW,296,0.0,1.0,85,0.00,,,0.00,vanprod-2.5,2014-12-19 08:24:00,
2014-12-19 03:29:00,26.8,22.9,30.19,NNW,327,0.0,1.0,85,0.00,,,0.00,vanprod-2.5,2014-12-19 08:29:00,
2014-12-19 03:34:00,26.8,23.2,30.19,WNW,298,1.0,2.0,86,0.00,,,0.00,vanprod-2.5,2014-12-19 08:34:00,
2014-12-19 03:38:00,26.7,23.1,30.19,WNW,303,1.0,1.0,86,0.00,,,0.00,vanprod-2.5,2014-12-19 08:38:00,
2014-12-19 03:43:00,26.6,22.7,30.19,NW,304,1.0,3.0,85,0.00,,,0.00,vanprod-2.5,2014-12-19 08:43:00,
2014-12-19 03:48:00,26.6,23.0,30.19,NW,318,0.0,1.0,86,0.00,,,0.00,vanprod-2.5,2014-12-19 08:48:00,
2014-12-19 03:53:00,26.7,23.1,30.19,West,273,1.0,2.0,86,0.00,,,0.00,vanprod-2.5,2014-12-19 08:53:00,
2014-12-19 03:58:00,26.6,23.0,30.19,WNW,288,0.0,1.0,86,0.00,,,0.00,vanprod-2.5,2014-12-19 08:58:00,
2014-12-19 04:04:00,26.6,23.0,30.19,NNW,337,0.0,1.0,86,0.00,,,0.00,vanprod-2.5,2014-12-19 09:04:00,
2014-12-19 04:09:00,26.5,22.9,30.19,NNW,339,0.0,2.0,86,0.00,,,0.00,vanprod-2.5,2014-12-19 09:09:00,
2014-12-19 04:14:00,26.5,22.9,30.19,NW,325,1.0,1.0,86,0.00,,,0.00,vanprod-2.5,2014-12-19 09:14:00,
2014-12-19 04:19:00,26.5,22.9,30.19,North,350,0.0,1.0,86,0.00,,,0.00,vanprod-2.5,2014-12-19 09:19:00,
2014-12-19 04:24:00,26.5,22.9,30.19,NW,316,0.0,1.0,86,0.00,,,0.00,vanprod-2.5,2014-12-19 09:24:00,
2014-12-19 04:29:00,26.5,22.9,30.19,NNW,330,0.0,1.0,86,0.00,,,0.00,vanprod-2.5,2014-12-19 09:29:00,
2014-12-19 04:34:00,26.5,22.9,30.19,WNW,291,1.0,3.0,86,0.00,,,0.00,vanprod-2.5,2014-12-19 09:34:00,
2014-12-19 04:39:00,26.5,22.9,30.19,NNE,15,0.0,1.0,86,0.00,,,0.00,vanprod-2.5,2014-12-19 09:39:00,
2014-12-19 04:44:00,26.5,22.9,30.19,NW,304,0.0,0.0,86,0.00,,,0.00,vanprod-2.5,2014-12-19 09:44:00,
2014-12-19 04:49:00,26.4,22.8,30.19,North,11,1.0,1.0,86,0.00,,,0.00,vanprod-2.5,2014-12-19 09:49:00,
2014-12-19 04:54:00,26.5,22.9,30.18,NNW,335,0.0,0.0,86,0.00,,,0.00,vanprod-2.5,2014-12-19 09:54:00,
2014-12-19 04:59:00,26.5,22.9,30.19,North,2,1.0,0.0,86,0.00,,,0.00,vanprod-2.5,2014-12-19 09:59:00,
2014-12-19 05:04:00,26.4,22.5,30.19,WNW,299,0.0,0.0,85,0.00,,,0.00,vanprod-2.5,2014-12-19 10:04:00,
2014-12-19 05:09:00,26.4,22.5,30.19,North,11,0.0,0.0,85,0.00,,,0.00,vanprod-2.5,2014-12-19 10:09:00,
2014-12-19 05:14:00,26.3,22.4,30.19,NW,314,0.0,0.0,85,0.00,,,0.00,vanprod-2.5,2014-12-19 10:14:00,
2014-12-19 05:19:00,26.3,22.4,30.20,NNE,13,0.0,0.0,85,0.00,,,0.00,vanprod-2.5,2014-12-19 10:19:00,
2014-12-19 05:24:00,26.3,22.4,30.20,North,357,0.0,2.0,85,0.00,,,0.00,vanprod-2.5,2014-12-19 10:24:00,
2014-12-19 05:29:00,26.4,22.5,30.20,North,353,0.0,0.0,85,0.00,,,0.00,vanprod-2.5,2014-12-19 10:29:00,
2014-12-19 05:34:00,26.4,22.5,30.20,North,352,0.0,0.0,85,0.00,,,0.00,vanprod-2.5,2014-12-19 10:34:00,
2014-12-19 05:39:00,26.4,22.8,30.20,NNE,21,1.0,1.0,86,0.00,,,0.00,vanprod-2.5,2014-12-19 10:39:00,
2014-12-19 05:44:00,26.4,22.5,30.20,North,355,1.0,1.0,85,0.00,,,0.00,vanprod-2.5,2014-12-19 10:44:00,
2014-12-19 05:49:00,26.3,22.4,30.20,NNW,342,0.0,1.0,85,0.00,,,0.00,vanprod-2.5,2014-12-19 10:49:00,
2014-12-19 05:54:00,26.3,22.4,30.20,NE,46,0.0,0.0,85,0.00,,,0.00,vanprod-2.5,2014-12-19 10:54:00,
2014-12-19 05:59:00,26.3,22.4,30.20,NE,42,0.0,0.0,85,0.00,,,0.00,vanprod-2.5,2014-12-19 10:59:00,
2014-12-19 06:04:00,26.3,22.4,30.20,NE,41,0.0,0.0,85,0.00,,,0.00,vanprod-2.5,2014-12-19 11:04:00,
2014-12-19 06:09:00,26.3,22.4,30.21,NW,323,0.0,0.0,85,0.00,,,0.00,vanprod-2.5,2014-12-19 11:09:00,
2014-12-19 06:14:00,26.4,22.5,30.21,North,8,0.0,0.0,85,0.00,,,0.00,vanprod-2.5,2014-12-19 11:14:00,
2014-12-19 06:19:00,26.4,22.8,30.21,North,8,0.0,0.0,86,0.00,,,0.00,vanprod-2.5,2014-12-19 11:19:00,
2014-12-19 06:24:00,26.4,22.5,30.21,WNW,302,0.0,0.0,85,0.00,,,0.00,vanprod-2.5,2014-12-19 11:24:00,
2014-12-19 06:29:00,26.4,22.5,30.22,WNW,285,0.0,1.0,85,0.00,,,0.00,vanprod-2.5,2014-12-19 11:29:00,
2014-12-19 06:34:00,26.4,22.5,30.22,ENE,74,0.0,0.0,85,0.00,,,0.00,vanprod-2.5,2014-12-19 11:34:00,
2014-12-19 06:39:00,26.4,22.5,30.22,ENE,74,0.0,0.0,85,0.00,,,0.00,vanprod-2.5,2014-12-19 11:39:00,
2014-12-19 06:44:00,26.4,22.5,30.22,NNE,22,0.0,0.0,85,0.00,,,0.00,vanprod-2.5,2014-12-19 11:44:00,
2014-12-19 06:49:00,26.5,22.9,30.21,NNE,25,0.0,1.0,86,0.00,,,0.00,vanprod-2.5,2014-12-19 11:49:00,
2014-12-19 06:54:00,26.5,22.6,30.22,NE,41,0.0,0.0,85,0.00,,,0.00,vanprod-2.5,2014-12-19 11:54:00,
2014-12-19 06:59:00,26.5,22.6,30.22,NNW,330,0.0,0.0,85,0.00,,,0.00,vanprod-2.5,2014-12-19 11:59:00,
2014-12-19 07:04:00,26.5,22.6,30.22,NE,51,0.0,1.0,85,0.00,,,0.00,vanprod-2.5,2014-12-19 12:04:00,
2014-12-19 07:09:00,26.4,22.5,30.22,NE,47,0.0,0.0,85,0.00,,,0.00,vanprod-2.5,2014-12-19 12:09:00,
2014-12-19 07:14:00,26.4,22.5,30.22,NE,47,0.0,0.0,85,0.00,,,0.00,vanprod-2.5,2014-12-19 12:14:00,
2014-12-19 07:19:00,26.4,22.5,30.22,NW,315,0.0,0.0,85,0.00,,,0.00,vanprod-2.5,2014-12-19 12:19:00,
2014-12-19 07:24:00,26.4,22.5,30.22,NW,311,0.0,0.0,85,0.00,,,0.00,vanprod-2.5,2014-12-19 12:24:00,
2014-12-19 07:29:00,26.4,22.5,30.23,North,6,0.0,1.0,85,0.00,,,0.00,vanprod-2.5,2014-12-19 12:29:00,
2014-12-19 07:34:00,26.4,22.5,30.22,NNW,327,0.0,1.0,85,0.00,,,0.00,vanprod-2.5,2014-12-19 12:34:00,
2014-12-19 07:39:00,26.3,22.4,30.23,NNE,20,0.0,2.0,85,0.00,,,0.00,vanprod-2.5,2014-12-19 12:39:00,
2014-12-19 07:44:00,26.3,22.4,30.22,West,281,0.0,1.0,85,0.00,,,0.00,vanprod-2.5,2014-12-19 12:44:00,
2014-12-19 07:49:00,26.3,22.4,30.22,WNW,300,0.0,1.0,85,0.00,,,0.00,vanprod-2.5,2014-12-19 12:49:00,
2014-12-19 07:54:00,26.2,22.6,30.22,NW,323,0.0,0.0,86,0.00,,,0.00,vanprod-2.5,2014-12-19 12:54:00,
2014-12-19 07:59:00,26.2,22.3,30.22,North,8,0.0,0.0,85,0.00,,,0.00,vanprod-2.5,2014-12-19 12:59:00,
2014-12-19 08:04:00,26.2,22.3,30.22,NW,316,0.0,0.0,85,0.00,,,0.00,vanprod-2.5,2014-12-19 13:04:00,
2014-12-19 08:09:00,26.2,22.3,30.22,WNW,301,0.0,1.0,85,0.00,,,0.00,vanprod-2.5,2014-12-19 13:09:00,
2014-12-19 08:14:00,26.2,22.3,30.22,North,10,0.0,0.0,85,0.00,,,0.00,vanprod-2.5,2014-12-19 13:14:00,
2014-12-19 08:19:00,26.2,22.3,30.22,NNW,334,0.0,1.0,85,0.00,,,0.00,vanprod-2.5,2014-12-19 13:19:00,
2014-12-19 08:24:00,26.2,22.3,30.22,NNW,335,0.0,0.0,85,0.00,,,0.00,vanprod-2.5,2014-12-19 13:24:00,
2014-12-19 08:29:00,26.2,22.3,30.22,WSW,239,0.0,1.0,85,0.00,,,0.00,vanprod-2.5,2014-12-19 13:29:00,
2014-12-19 08:34:00,26.3,22.7,30.23,SW,228,0.0,1.0,86,0.00,,,0.00,vanprod-2.5,2014-12-19 13:34:00,
2014-12-19 08:39:00,26.3,22.4,30.23,SW,232,0.0,0.0,85,0.00,,,0.00,vanprod-2.5,2014-12-19 13:39:00,
2014-12-19 08:44:00,26.4,22.5,30.23,SW,231,0.0,0.0,85,0.00,,,0.00,vanprod-2.5,2014-12-19 13:44:00,
2014-12-19 08:49:00,26.5,22.6,30.24,SW,231,0.0,0.0,85,0.00,,,0.00,vanprod-2.5,2014-12-19 13:49:00,
2014-12-19 08:54:00,26.5,22.6,30.24,SW,231,0.0,0.0,85,0.00,,,0.00,vanprod-2.5,2014-12-19 13:54:00,
2014-12-19 08:59:00,26.6,22.7,30.24,SW,231,0.0,0.0,85,0.00,,,0.00,vanprod-2.5,2014-12-19 13:59:00,
2014-12-19 09:04:00,26.7,22.8,30.24,WSW,237,0.0,1.0,85,0.00,,,0.00,vanprod-2.5,2014-12-19 14:04:00,
2014-12-19 09:09:00,26.8,22.6,30.24,West,262,0.0,1.0,84,0.00,,,0.00,vanprod-2.5,2014-12-19 14:09:00,
2014-12-19 09:14:00,27.0,23.1,30.24,West,262,0.0,0.0,85,0.00,,,0.00,vanprod-2.5,2014-12-19 14:14:00,
2014-12-19 09:19:00,27.1,22.9,30.24,South,180,0.0,1.0,84,0.00,,,0.00,vanprod-2.5,2014-12-19 14:19:00,
2014-12-19 09:24:00,27.3,23.1,30.25,SSE,168,2.0,2.0,84,0.00,,,0.00,vanprod-2.5,2014-12-19 14:24:00,
2014-12-19 09:29:00,27.3,23.1,30.25,SW,224,1.0,2.0,84,0.00,,,0.00,vanprod-2.5,2014-12-19 14:29:00,
2014-12-19 09:34:00,27.4,23.2,30.25,SW,231,2.0,2.0,84,0.00,,,0.00,vanprod-2.5,2014-12-19 14:34:00,
2014-12-19 09:39:00,27.4,23.2,30.25,SSW,200,1.0,2.0,84,0.00,,,0.00,vanprod-2.5,2014-12-19 14:39:00,
2014-12-19 09:44:00,27.5,23.3,30.25,WSW,247,0.0,1.0,84,0.00,,,0.00,vanprod-2.5,2014-12-19 14:44:00,
2014-12-19 09:49:00,27.5,23.0,30.25,SSW,209,0.0,1.0,83,0.00,,,0.00,vanprod-2.5,2014-12-19 14:49:00,
2014-12-19 09:54:00,27.6,23.1,30.25,West,276,0.0,0.0,83,0.00,,,0.00,vanprod-2.5,2014-12-19 14:54:00,
2014-12-19 09:59:00,27.7,23.2,30.25,West,267,0.0,0.0,83,0.00,,,0.00,vanprod-2.5,2014-12-19 14:59:00,
2014-12-19 10:04:00,27.8,23.3,30.25,West,266,0.0,0.0,83,0.00,,,0.00,vanprod-2.5,2014-12-19 15:04:00,
2014-12-19 10:09:00,28.0,23.5,30.25,West,279,1.0,1.0,83,0.00,,,0.00,vanprod-2.5,2014-12-19 15:09:00,
2014-12-19 10:14:00,28.0,23.5,30.25,West,263,0.0,1.0,83,0.00,,,0.00,vanprod-2.5,2014-12-19 15:14:00,
2014-12-19 10:19:00,28.1,23.6,30.25,West,268,1.0,2.0,83,0.00,,,0.00,vanprod-2.5,2014-12-19 15:19:00,
2014-12-19 10:24:00,28.2,23.7,30.25,North,353,0.0,1.0,83,0.00,,,0.00,vanprod-2.5,2014-12-19 15:24:00,
2014-12-19 10:29:00,28.3,23.5,30.26,WNW,296,1.0,1.0,82,0.00,,,0.00,vanprod-2.5,2014-12-19 15:29:00,
2014-12-19 10:34:00,28.2,23.4,30.25,West,265,0.0,0.0,82,0.00,,,0.00,vanprod-2.5,2014-12-19 15:34:00,
2014-12-19 10:39:00,28.2,23.4,30.25,WNW,295,0.0,0.0,82,0.00,,,0.00,vanprod-2.5,2014-12-19 15:39:00,
2014-12-19 10:44:00,28.2,23.4,30.25,West,279,0.0,2.0,82,0.00,,,0.00,vanprod-2.5,2014-12-19 15:44:00,
2014-12-19 10:49:00,28.4,23.6,30.25,NNW,339,1.0,1.0,82,0.00,,,0.00,vanprod-2.5,2014-12-19 15:49:00,
2014-12-19 10:54:00,28.5,23.7,30.25,NNW,332,0.0,0.0,82,0.00,,,0.00,vanprod-2.5,2014-12-19 15:54:00,
2014-12-19 10:59:00,28.6,23.8,30.25,West,267,0.0,1.0,82,0.00,,,0.00,vanprod-2.5,2014-12-19 15:59:00,
2014-12-19 11:04:00,28.7,23.9,30.25,West,269,0.0,1.0,82,0.00,,,0.00,vanprod-2.5,2014-12-19 16:04:00,
2014-12-19 11:09:00,28.8,24.0,30.25,North,359,1.0,1.0,82,0.00,,,0.00,vanprod-2.5,2014-12-19 16:09:00,
2014-12-19 11:14:00,28.8,23.7,30.24,WNW,294,0.0,0.0,81,0.00,,,0.00,vanprod-2.5,2014-12-19 16:14:00,
2014-12-19 11:19:00,28.9,23.8,30.25,NW,313,1.0,3.0,81,0.00,,,0.00,vanprod-2.5,2014-12-19 16:19:00,
2014-12-19 11:25:00,29.0,23.9,30.24,ENE,72,0.0,0.0,81,0.00,,,0.00,vanprod-2.5,2014-12-19 16:25:00,
2014-12-19 11:30:00,29.2,24.4,30.24,ENE,72,0.0,0.0,82,0.00,,,0.00,vanprod-2.5,2014-12-19 16:30:00,
2014-12-19 11:35:00,29.3,24.2,30.25,NNW,333,0.0,0.0,81,0.00,,,0.00,vanprod-2.5,2014-12-19 16:35:00,
2014-12-19 11:40:00,29.3,24.2,30.25,WNW,302,0.0,0.0,81,0.00,,,0.00,vanprod-2.5,2014-12-19 16:40:00,
2014-12-19 11:45:00,29.3,24.2,30.24,West,279,0.0,1.0,81,0.00,,,0.00,vanprod-2.5,2014-12-19 16:45:00,
2014-12-19 11:50:00,29.2,24.1,30.24,West,280,0.0,1.0,81,0.00,,,0.00,vanprod-2.5,2014-12-19 16:50:00,
2014-12-19 11:55:00,29.2,24.1,30.24,SW,225,0.0,0.0,81,0.00,,,0.00,vanprod-2.5,2014-12-19 16:55:00,
2014-12-19 12:00:00,29.5,24.7,30.23,West,279,0.0,0.0,82,0.00,,,0.00,vanprod-2.5,2014-12-19 17:00:00,
2014-12-19 12:05:00,29.6,24.2,30.23,NE,34,1.0,0.0,80,0.00,,,0.00,vanprod-2.5,2014-12-19 17:05:00,
2014-12-19 12:10:00,29.5,24.4,30.23,East,91,0.0,0.0,81,0.00,,,0.00,vanprod-2.5,2014-12-19 17:10:00,
2014-12-19 12:15:00,29.6,24.2,30.22,WSW,258,0.0,1.0,80,0.00,,,0.00,vanprod-2.5,2014-12-19 17:15:00,
2014-12-19 12:20:00,29.5,24.1,30.22,NW,314,0.0,0.0,80,0.00,,,0.00,vanprod-2.5,2014-12-19 17:20:00,
2014-12-19 12:25:00,29.5,24.4,30.22,ENE,60,1.0,3.0,81,0.00,,,0.00,vanprod-2.5,2014-12-19 17:25:00,
2014-12-19 12:29:00,29.5,24.1,30.22,NNW,335,1.0,2.0,80,0.00,,,0.00,vanprod-2.5,2014-12-19 17:29:00,
2014-12-19 12:35:00,29.5,24.4,30.22,NE,48,0.0,1.0,81,0.00,,,0.00,vanprod-2.5,2014-12-19 17:35:00,
2014-12-19 12:40:00,29.8,24.7,30.22,NNE,32,0.0,0.0,81,0.00,,,0.00,vanprod-2.5,2014-12-19 17:40:00,
2014-12-19 12:45:00,29.8,24.4,30.22,NE,39,1.0,2.0,80,0.00,,,0.00,vanprod-2.5,2014-12-19 17:45:00,
2014-12-19 12:50:00,29.7,24.0,30.22,NNE,16,0.0,0.0,79,0.00,,,0.00,vanprod-2.5,2014-12-19 17:50:00,
2014-12-19 12:55:00,29.8,24.4,30.22,NE,35,0.0,1.0,80,0.00,,,0.00,vanprod-2.5,2014-12-19 17:55:00,
2014-12-19 13:00:00,29.8,24.4,30.22,NE,39,0.0,1.0,80,0.00,,,0.00,vanprod-2.5,2014-12-19 18:00:00,
2014-12-19 13:05:00,29.8,24.7,30.22,NW,317,0.0,1.0,81,0.00,,,0.00,vanprod-2.5,2014-12-19 18:05:00,
2014-12-19 13:10:00,29.9,24.8,30.22,West,274,0.0,1.0,81,0.00,,,0.00,vanprod-2.5,2014-12-19 18:10:00,
2014-12-19 13:15:00,29.8,24.4,30.22,WNW,282,0.0,0.0,80,0.00,,,0.00,vanprod-2.5,2014-12-19 18:15:00,
2014-12-19 13:20:00,29.8,24.4,30.21,West,280,0.0,1.0,80,0.00,,,0.00,vanprod-2.5,2014-12-19 18:20:00,
2014-12-19 13:25:00,29.8,24.4,30.21,NE,52,0.0,1.0,80,0.00,,,0.00,vanprod-2.5,2014-12-19 18:25:00,
2014-12-19 13:30:00,29.8,24.4,30.21,West,281,0.0,0.0,80,0.00,,,0.00,vanprod-2.5,2014-12-19 18:30:00,
2014-12-19 13:35:00,29.8,24.4,30.21,West,273,0.0,0.0,80,0.00,,,0.00,vanprod-2.5,2014-12-19 18:35:00,
2014-12-19 13:40:00,29.8,24.4,30.21,SSE,156,0.0,0.0,80,0.00,,,0.00,vanprod-2.5,2014-12-19 18:40:00,
2014-12-19 13:45:00,30.1,25.0,30.21,West,264,1.0,1.0,81,0.00,,,0.00,vanprod-2.5,2014-12-19 18:45:00,
2014-12-19 13:50:00,30.0,24.6,30.21,West,274,0.0,1.0,80,0.00,,,0.00,vanprod-2.5,2014-12-19 18:50:00,
2014-12-19 13:55:00,30.0,24.6,30.21,NW,306,0.0,0.0,80,0.00,,,0.00,vanprod-2.5,2014-12-19 18:55:00,
2014-12-19 14:00:00,29.8,24.4,30.21,West,263,0.0,0.0,80,0.00,,,0.00,vanprod-2.5,2014-12-19 19:00:00,
2014-12-19 14:05:00,30.1,25.0,30.21,West,268,0.0,1.0,81,0.00,,,0.00,vanprod-2.5,2014-12-19 19:05:00,
2014-12-19 14:10:00,30.1,24.7,30.21,NNE,13,0.0,1.0,80,0.00,,,0.00,vanprod-2.5,2014-12-19 19:10:00,
2014-12-19 14:15:00,30.1,24.7,30.21,NNW,340,0.0,1.0,80,0.00,,,0.00,vanprod-2.5,2014-12-19 19:15:00,
2014-12-19 14:20:00,30.2,25.1,30.21,ENE,60,0.0,1.0,81,0.00,,,0.00,vanprod-2.5,2014-12-19 19:20:00,
2014-12-19 14:25:00,30.2,24.8,30.21,NE,45,1.0,2.0,80,0.00,,,0.00,vanprod-2.5,2014-12-19 19:25:00,
2014-12-19 14:30:00,30.1,24.4,30.21,NW,326,1.0,1.0,79,0.00,,,0.00,vanprod-2.5,2014-12-19 19:30:00,
2014-12-19 14:35:00,30.1,24.4,30.21,ENE,64,1.0,1.0,79,0.00,,,0.00,vanprod-2.5,2014-12-19 19:35:00,
2014-12-19 14:40:00,30.0,24.6,30.21,East,82,1.0,1.0,80,0.00,,,0.00,vanprod-2.5,2014-12-19 19:40:00,
2014-12-19 14:45:00,30.0,24.6,30.21,East,89,0.0,1.0,80,0.00,,,0.00,vanprod-2.5,2014-12-19 19:45:00,
2014-12-19 14:50:00,29.9,24.5,30.21,ENE,65,0.0,1.0,80,0.00,,,0.00,vanprod-2.5,2014-12-19 19:50:00,
2014-12-19 14:55:00,30.1,24.7,30.21,NE,46,0.0,0.0,80,0.00,,,0.00,vanprod-2.5,2014-12-19 19:55:00,
2014-12-19 15:01:00,30.2,24.8,30.21,NE,46,0.0,1.0,80,0.00,,,0.00,vanprod-2.5,2014-12-19 20:01:00,
2014-12-19 15:06:00,30.3,24.6,30.21,East,84,1.0,2.0,79,0.00,,,0.00,vanprod-2.5,2014-12-19 20:06:00,
2014-12-19 15:11:00,30.1,24.7,30.22,East,90,0.0,0.0,80,0.00,,,0.00,vanprod-2.5,2014-12-19 20:11:00,
2014-12-19 15:16:00,30.1,24.7,30.25,East,90,0.0,0.0,80,0.00,,,0.00,vanprod-2.5,2014-12-19 20:16:00,
2014-12-19 15:21:00,30.1,24.7,30.25,East,90,0.0,0.0,80,0.00,,,0.00,vanprod-2.5,2014-12-19 20:21:00,
2014-12-19 15:26:00,30.1,24.7,30.24,North,350,0.0,0.0,80,0.00,,,0.00,vanprod-2.5,2014-12-19 20:26:00,
2014-12-19 15:31:00,30.1,24.7,30.24,North,352,0.0,0.0,80,0.00,,,0.00,vanprod-2.5,2014-12-19 20:31:00,
2014-12-19 15:36:00,30.1,24.7,30.24,NE,49,0.0,0.0,80,0.00,,,0.00,vanprod-2.5,2014-12-19 20:36:00,
2014-12-19 15:41:00,30.1,24.7,30.23,ENE,59,1.0,0.0,80,0.00,,,0.00,vanprod-2.5,2014-12-19 20:41:00,
2014-12-19 15:46:00,30.0,24.9,30.23,ENE,63,0.0,0.0,81,0.00,,,0.00,vanprod-2.5,2014-12-19 20:46:00,
2014-12-19 15:51:00,30.0,24.9,30.23,ENE,63,0.0,1.0,81,0.00,,,0.00,vanprod-2.5,2014-12-19 20:51:00,
2014-12-19 15:56:00,29.9,24.8,30.24,NE,34,0.0,1.0,81,0.00,,,0.00,vanprod-2.5,2014-12-19 20:56:00,
2014-12-19 16:01:00,29.9,24.8,30.24,East,91,0.0,0.0,81,0.00,,,0.00,vanprod-2.5,2014-12-19 21:01:00,
2014-12-19 16:06:00,29.9,24.5,30.24,ENE,72,0.0,0.0,80,0.00,,,0.00,vanprod-2.5,2014-12-19 21:06:00,
2014-12-19 16:11:00,29.9,24.5,30.24,East,90,1.0,1.0,80,0.00,,,0.00,vanprod-2.5,2014-12-19 21:11:00,
2014-12-19 16:16:00,29.9,24.8,30.24,East,90,0.0,1.0,81,0.00,,,0.00,vanprod-2.5,2014-12-19 21:16:00,
2014-12-19 16:21:00,29.9,24.8,30.24,ENE,78,0.0,1.0,81,0.00,,,0.00,vanprod-2.5,2014-12-19 21:21:00,
2014-12-19 16:26:00,29.9,24.8,30.25,East,90,0.0,0.0,81,0.00,,,0.00,vanprod-2.5,2014-12-19 21:26:00,
2014-12-19 16:31:00,29.9,24.8,30.26,East,90,0.0,0.0,81,0.00,,,0.00,vanprod-2.5,2014-12-19 21:31:00,
2014-12-19 16:36:00,29.9,24.8,30.26,East,89,0.0,0.0,81,0.00,,,0.00,vanprod-2.5,2014-12-19 21:36:00,
2014-12-19 16:41:00,29.8,24.7,30.26,East,90,0.0,0.0,81,0.00,,,0.00,vanprod-2.5,2014-12-19 21:41:00,
2014-12-19 16:46:00,29.8,24.7,30.26,East,90,0.0,1.0,81,0.00,,,0.00,vanprod-2.5,2014-12-19 21:46:00,
2014-12-19 16:51:00,29.8,24.7,30.26,East,90,0.0,0.0,81,0.00,,,0.00,vanprod-2.5,2014-12-19 21:51:00,
2014-12-19 16:56:00,29.7,24.6,30.27,East,90,0.0,0.0,81,0.00,,,0.00,vanprod-2.5,2014-12-19 21:56:00,
2014-12-19 17:01:00,29.7,24.6,30.27,East,90,0.0,0.0,81,0.00,,,0.00,vanprod-2.5,2014-12-19 22:01:00,
2014-12-19 17:06:00,29.7,24.9,30.27,East,90,0.0,1.0,82,0.00,,,0.00,vanprod-2.5,2014-12-19 22:06:00,
2014-12-19 17:11:00,29.7,24.6,30.27,East,89,1.0,1.0,81,0.00,,,0.00,vanprod-2.5,2014-12-19 22:11:00,
2014-12-19 17:16:00,29.6,24.5,30.28,East,89,0.0,0.0,81,0.00,,,0.00,vanprod-2.5,2014-12-19 22:16:00,
2014-12-19 17:21:00,29.6,24.2,30.28,East,89,0.0,0.0,80,0.00,,,0.00,vanprod-2.5,2014-12-19 22:21:00,
2014-12-19 17:26:00,29.6,23.9,30.28,East,89,0.0,1.0,79,0.00,,,0.00,vanprod-2.5,2014-12-19 22:26:00,
2014-12-19 17:31:00,29.7,24.3,30.28,East,89,0.0,0.0,80,0.00,,,0.00,vanprod-2.5,2014-12-19 22:31:00,
2014-12-19 17:36:00,29.6,24.2,30.29,East,89,0.0,0.0,80,0.00,,,0.00,vanprod-2.5,2014-12-19 22:36:00,
2014-12-19 17:42:00,29.6,24.2,30.29,East,89,0.0,0.0,80,0.00,,,0.00,vanprod-2.5,2014-12-19 22:42:00,
2014-12-19 17:47:00,29.6,24.2,30.29,East,89,0.0,0.0,80,0.00,,,0.00,vanprod-2.5,2014-12-19 22:47:00,
2014-12-19 17:52:00,29.6,24.5,30.29,East,89,0.0,0.0,81,0.00,,,0.00,vanprod-2.5,2014-12-19 22:52:00,
2014-12-19 17:57:00,29.5,24.4,30.29,East,89,0.0,0.0,81,0.00,,,0.00,vanprod-2.5,2014-12-19 22:57:00,
2014-12-19 18:02:00,29.5,24.4,30.29,East,89,0.0,0.0,81,0.00,,,0.00,vanprod-2.5,2014-12-19 23:02:00,
2014-12-19 18:07:00,29.5,24.4,30.29,East,89,0.0,0.0,81,0.00,,,0.00,vanprod-2.5,2014-12-19 23:07:00,
2014-12-19 18:12:00,29.5,24.7,30.29,East,89,0.0,1.0,82,0.00,,,0.00,vanprod-2.5,2014-12-19 23:12:00,
2014-12-19 18:17:00,29.5,24.4,30.29,East,89,0.0,0.0,81,0.00,,,0.00,vanprod-2.5,2014-12-19 23:17:00,
2014-12-19 18:22:00,29.5,24.4,30.29,East,89,0.0,1.0,81,0.00,,,0.00,vanprod-2.5,2014-12-19 23:22:00,
2014-12-19 18:27:00,29.5,24.1,30.29,East,89,1.0,2.0,80,0.00,,,0.00,vanprod-2.5,2014-12-19 23:27:00,
2014-12-19 18:32:00,29.5,24.1,30.29,East,82,0.0,0.0,80,0.00,,,0.00,vanprod-2.5,2014-12-19 23:32:00,
2014-12-19 18:37:00,29.5,24.1,30.29,East,84,1.0,1.0,80,0.00,,,0.00,vanprod-2.5,2014-12-19 23:37:00,
2014-12-19 18:42:00,29.6,24.8,30.29,ENE,62,0.0,1.0,82,0.00,,,0.00,vanprod-2.5,2014-12-19 23:42:00,
2014-12-19 18:47:00,29.5,25.0,30.29,ENE,63,0.0,1.0,83,0.00,,,0.00,vanprod-2.5,2014-12-19 23:47:00,
2014-12-19 18:52:00,29.5,24.7,30.28,ENE,60,0.0,0.0,82,0.00,,,0.00,vanprod-2.5,2014-12-19 23:52:00,
2014-12-19 18:57:00,29.4,24.6,30.28,ENE,60,0.0,0.0,82,0.00,,,0.00,vanprod-2.5,2014-12-19 23:57:00,
2014-12-19 19:02:00,29.4,24.6,30.28,ENE,57,0.0,0.0,82,0.00,,,0.00,vanprod-2.5,2014-12-20 00:02:00,
2014-12-19 19:07:00,29.4,24.6,30.28,North,358,1.0,2.0,82,0.00,,,0.00,vanprod-2.5,2014-12-20 00:07:00,
2014-12-19 19:12:00,29.4,24.6,30.28,ENE,67,2.0,2.0,82,0.00,,,0.00,vanprod-2.5,2014-12-20 00:12:00,
2014-12-19 19:17:00,29.4,24.6,30.28,NE,35,1.0,3.0,82,0.00,,,0.00,vanprod-2.5,2014-12-20 00:17:00,
2014-12-19 19:22:00,29.3,24.2,30.28,NNE,15,0.0,0.0,81,0.00,,,0.00,vanprod-2.5,2014-12-20 00:22:00,
2014-12-19 19:27:00,29.3,24.2,30.28,NNE,26,0.0,1.0,81,0.00,,,0.00,vanprod-2.5,2014-12-20 00:27:00,
2014-12-19 19:32:00,29.3,24.2,30.28,NNE,25,0.0,1.0,81,0.00,,,0.00,vanprod-2.5,2014-12-20 00:32:00,
2014-12-19 19:38:00,29.3,24.5,30.28,NNE,23,0.0,0.0,82,0.00,,,0.00,vanprod-2.5,2014-12-20 00:38:00,
2014-12-19 19:43:00,29.3,24.5,30.28,East,87,0.0,0.0,82,0.00,,,0.00,vanprod-2.5,2014-12-20 00:43:00,
2014-12-19 19:48:00,29.2,24.4,30.28,East,87,0.0,0.0,82,0.00,,,0.00,vanprod-2.5,2014-12-20 00:48:00,
2014-12-19 19:53:00,29.2,24.4,30.28,East,86,0.0,2.0,82,0.00,,,0.00,vanprod-2.5,2014-12-20 00:53:00,
2014-12-19 19:58:00,29.2,24.1,30.27,East,80,1.0,3.0,81,0.00,,,0.00,vanprod-2.5,2014-12-20 00:58:00,
2014-12-19 20:03:00,29.2,24.1,30.28,East,85,0.0,0.0,81,0.00,,,0.00,vanprod-2.5,2014-12-20 01:03:00,
2014-12-19 20:08:00,29.2,24.4,30.28,East,82,1.0,2.0,82,0.00,,,0.00,vanprod-2.5,2014-12-20 01:08:00,
2014-12-19 20:13:00,29.2,24.4,30.28,East,93,0.0,0.0,82,0.00,,,0.00,vanprod-2.5,2014-12-20 01:13:00,
2014-12-19 20:18:00,29.2,24.4,30.28,East,82,0.0,0.0,82,0.00,,,0.00,vanprod-2.5,2014-12-20 01:18:00,
2014-12-19 20:23:00,29.1,24.3,30.28,East,82,0.0,0.0,82,0.00,,,0.00,vanprod-2.5,2014-12-20 01:23:00,
2014-12-19 20:28:00,29.2,24.7,30.28,East,82,0.0,0.0,83,0.00,,,0.00,vanprod-2.5,2014-12-20 01:28:00,
2014-12-19 20:33:00,29.1,24.6,30.28,East,82,0.0,0.0,83,0.00,,,0.00,vanprod-2.5,2014-12-20 01:33:00,
2014-12-19 20:38:00,29.1,24.6,30.28,East,82,0.0,0.0,83,0.00,,,0.00,vanprod-2.5,2014-12-20 01:38:00,
2014-12-19 20:44:00,29.1,24.9,30.28,East,82,0.0,0.0,84,0.00,,,0.00,vanprod-2.5,2014-12-20 01:44:00,
2014-12-19 20:49:00,29.0,24.5,30.28,East,82,0.0,0.0,83,0.00,,,0.00,vanprod-2.5,2014-12-20 01:49:00,
2014-12-19 20:54:00,29.0,24.5,30.28,East,83,0.0,0.0,83,0.00,,,0.00,vanprod-2.5,2014-12-20 01:54:00,
2014-12-19 20:59:00,29.0,24.5,30.28,East,83,0.0,0.0,83,0.00,,,0.00,vanprod-2.5,2014-12-20 01:59:00,
2014-12-19 21:04:00,29.0,24.5,30.28,East,83,0.0,0.0,83,0.00,,,0.00,vanprod-2.5,2014-12-20 02:04:00,
2014-12-19 21:09:00,28.9,24.4,30.28,ENE,65,1.0,1.0,83,0.00,,,0.00,vanprod-2.5,2014-12-20 02:09:00,
2014-12-19 21:14:00,29.0,24.5,30.28,ENE,72,0.0,0.0,83,0.00,,,0.00,vanprod-2.5,2014-12-20 02:14:00,
2014-12-19 21:19:00,29.0,24.5,30.28,ENE,72,0.0,0.0,83,0.00,,,0.00,vanprod-2.5,2014-12-20 02:19:00,
2014-12-19 21:24:00,29.0,24.5,30.27,ENE,72,0.0,0.0,83,0.00,,,0.00,vanprod-2.5,2014-12-20 02:24:00,
2014-12-19 21:29:00,28.9,24.4,30.27,ENE,72,0.0,0.0,83,0.00,,,0.00,vanprod-2.5,2014-12-20 02:29:00,
2014-12-19 21:34:00,28.9,24.4,30.27,East,80,1.0,1.0,83,0.00,,,0.00,vanprod-2.5,2014-12-20 02:34:00,
2014-12-19 21:39:00,28.9,24.4,30.27,East,80,0.0,0.0,83,0.00,,,0.00,vanprod-2.5,2014-12-20 02:39:00,
2014-12-19 21:44:00,28.9,24.4,30.27,East,80,0.0,0.0,83,0.00,,,0.00,vanprod-2.5,2014-12-20 02:44:00,
2014-12-19 21:49:00,28.9,24.4,30.27,East,80,1.0,1.0,83,0.00,,,0.00,vanprod-2.5,2014-12-20 02:49:00,
2014-12-19 21:54:00,28.9,24.4,30.26,East,85,0.0,0.0,83,0.00,,,0.00,vanprod-2.5,2014-12-20 02:54:00,
2014-12-19 21:59:00,28.9,24.4,30.27,East,81,2.0,4.0,83,0.00,,,0.00,vanprod-2.5,2014-12-20 02:59:00,
2014-12-19 22:04:00,28.9,24.4,30.26,ENE,78,1.0,1.0,83,0.00,,,0.00,vanprod-2.5,2014-12-20 03:04:00,
2014-12-19 22:09:00,28.9,24.4,30.26,East,80,0.0,0.0,83,0.00,,,0.00,vanprod-2.5,2014-12-20 03:09:00,
2014-12-19 22:14:00,28.9,24.4,30.26,ENE,77,0.0,1.0,83,0.00,,,0.00,vanprod-2.5,2014-12-20 03:14:00,
2014-12-19 22:19:00,28.9,24.4,30.26,East,82,2.0,2.0,83,0.00,,,0.00,vanprod-2.5,2014-12-20 03:19:00,
2014-12-19 22:24:00,28.9,24.4,30.26,East,84,0.0,1.0,83,0.00,,,0.00,vanprod-2.5,2014-12-20 03:24:00,
2014-12-19 22:30:00,28.9,24.7,30.26,East,86,0.0,1.0,84,0.00,,,0.00,vanprod-2.5,2014-12-20 03:30:00,